Location: Koussan�
(15.2012°N, 12.5548°W)
Time: 18:19:22
(UTC+00:00)

USA 281 - Pass Details

Date: 20 October 2020
Orbit: 1079 x 1080 km, 106.0° (Epoch: 23 November)

Event Time Altitude Azimuth Distance (km) Brightness Sun altitude
Rises 18:50:30 0° 164° (SSE) 3,864 6.1 -6.5°
Reaches altitude 10° 18:53:01 10° 166° (SSE) 2,909 5.4 -7.1°
Maximum altitude 18:59:32 74° 250° (WSW) 1,118 3.5 -8.7°
Drops below altitude 10° 19:06:04 10° 335° (NNW) 2,912 5.7 -10.2°
Sets 19:08:35 0° 337° (NNW) 3,868 6.3 -10.8°
